Flag for Japan Weather past 2 weeks in Hamamatsu, Japan

Now
54 °F

Cool.


Feels Like: 49 °F
Forecast: 37 / 50 °F
Wind: 25 mph from West

Location: Omaezaki

Current Time: Mar 4, 2015 at 6:07:54 PM

Latest Report: Mar 4, 2015 at 5:00 PM


Visibility: 13 mi

Pressure: 29.75 "Hg

Humidity: 53%

Dew point: 38 °F

Location of HamamatsuLocation

Historic Weather in Hamamatsu — Graph

°F

Hamamatsu temperature yesterday

Maximum temperature yesterday: 53 °F (at 3:00 PM)
Minimum temperature yesterday: 40 °F (at 5:00 AM)
Average temperature yesterday: 49 °F

Past Weeks' High & Low Weather Summary

 TemperatureHumidityPressure
High64 °F (Feb 23, 3:00 PM)100% (Feb 22, 6:00 PM)30.35 "Hg (Feb 22, 6:00 PM)
Low36 °F (Feb 28, 5:00 AM)31% (Feb 27, 1:00 PM)29.44 "Hg (Mar 1, 7:00 PM)
Average49 °F67%29.98 "Hg
* Reported Feb 17 4:00 PM — Mar 4 4:00 PM, Hamamatsu, Weather by CustomWeather, © 2015

Note: Actual official high and low records may vary slightly from our data, if they occured in-between our weather recording intervals... More about our weather records

Advertising

Hamamatsu weather history for previous 24 hours

 ConditionsComfort  
Time TempWeatherWind HumidityBarometerVisibility
4:00 PM
Wed, Mar 4
56 °FRefreshingly cool.24 mph53%29.73 "Hg12 mi
3:00 PM56 °FRefreshingly cool.28 mph51%29.72 "Hg12 mi
2:00 PM57 °FRefreshingly cool.25 mph53%29.71 "Hg12 mi
1:00 PM57 °FRefreshingly cool.25 mph55%29.72 "Hg12 mi
11:00 AM56 °FRefreshingly cool.28 mph56%29.73 "Hg12 mi
10:00 AM54 °FCool.24 mph55%29.72 "Hg12 mi
9:00 AM54 °FCool.25 mph72%29.71 "Hg12 mi
8:00 AM52 °FCool.22 mph88%29.67 "Hg10 mi
7:00 AM51 °FCool.14 mph97%29.64 "Hg4 mi
6:00 AM49 °FLight rain. Overcast.10 mph100%29.59 "Hg12 mi
5:00 AM49 °FLight rain. Overcast.13 mph100%29.57 "Hg2 mi
3:00 AM49 °FRain. Overcast.22 mph100%29.63 "Hg2 mi
2:00 AM48 °FRain. Overcast.21 mph100%29.69 "Hg1 mi
1:00 AM48 °FRain. Overcast.18 mph99%29.75 "Hg1 mi
12:00 AM47 °FRain. Overcast.16 mph98%29.83 "Hg2 mi
11:00 PM
Tue, Mar 3
50 °FLight rain. Overcast.10 mph97%29.89 "Hg2 mi
10:00 PM51 °FLight rain. Overcast.15 mph88%29.92 "Hg3 mi
9:00 PM50 °FLight rain. Overcast.16 mph84%29.95 "Hg4 mi
8:00 PM51 °FCool.14 mph75%29.98 "Hg10 mi
7:00 PM51 °FCool.14 mph70%29.97 "Hg12 mi
6:00 PM51 °FCool.12 mph71%29.98 "Hg12 mi
Weather by CustomWeather, © 2015

See weather overviewHow to use our weather pages